Key statistics
Satellite CICERO 10 at a glance.
Uptime
2078
Days in orbit
Revolutions
≈ 15.5
Per day
Orbit
LEO
Low Earth Orbit
Inclination
85.0
Latest
Satellite identification and parameters
Extended collection of information and parameters for CICERO 10.
Object identification
Identified? True
Debris? False
Object name: CICERO 10
International designator: 2018-088A
Object number (NORAD): 43690
Object ID (CCSDS): 43690
Country: UNITED STATES OF AMERICA (US)
Current information (Y/N): Y
RCS size: MEDIUM
Orbital parameters
Decay date: July 20, 2024
Period: 92.709 minutes
Inclination: 85.0197 deg
SMA: 6785.393 km
Apoapsis: 414.172 km
Periapsis: 400.344 km
RAAN: 268.8527 deg
Eccentricy: 0.001019
Argument of periapsis: 52.9031 deg
Mean anomaly: 307.3157 deg
Mean motion: 15.53246078 rev/day
Mean motion (dot): 0.00082032 rev/day2
B* drag term: 0.0012908 1/REarth
Two-line elements (TLE)
Creation date: Feb. 12, 2024, 3:07 a.m.
Reference frame: TEME
Reference center: EARTH
Epoch: Feb. 11, 2024, 3:26 p.m. UTC
TLE line 0: 0 CICERO 10
TLE line 1: 1 43690U 18088A 24042.64307950 .00082032 00000-0 12908-2 0 9990
TLE line 2: 2 43690 85.0197 268.8527 0010190 52.9031 307.3157 15.53246078292429
Live tracking on map
Satellite CICERO 10 has decayed and is no longer in orbit. No tracking available.
In-orbit conjunctions
Satellite CICERO 10 has decayed and is no longer in orbit. No conjunctions available.
Associated space launch
Electron's first commercial launch will feature two Lemur-2 cubesats for Spire Global, a single cubesat for GeoOptics, a NABEO drag sail demonstrator for High Performance Space Structure Systems, an IRVINE01 cubesat from the Irvine CubeSat STEM Program, and two Proxima cubesats from Fleet Space Technologies.
CICERO 10 was lifted into orbit during the mission ‘Electron | It's Business Time (Rideshare)’, on board a Electron space rocket.
The launch took place on Nov. 11, 2018, 3:50 a.m. from Rocket Lab Launch Complex 1A.
For more information about the launch, click the button.
Electron | It's Business Time (Rideshare)
Agency: N/A
Status: Launch Successful
Launch date: Nov. 11, 2018, 3:50 a.m. UTC
Rocket: Electron
Launch pad: Rocket Lab Launch Complex 1A
Location: Rocket Lab Launch Complex 1, Mahia Peninsula, New Zealand
...
Latest news about this satellite
There are no fresh news available about this satellite. Check back as we update our databases every day.
Newsletter sign-up
Weekly statistics, charts and insights to help you stay on top of the space industry.
